| time (UTC) | temp F | wind direction | speed knots | gust knots | rain 1hr in | rain 24hr in | rain mn in | humidity % | barometer mb |
| 20260505035005 | 56 | 1 | 3.5 | 10.4 | 0.00 | 0.00 | 0.00 | 48 | 1008.6 |
| 20260505034508 | 56 | 1 | 3.5 | 7.8 | 0.00 | 0.00 | 0.00 | 48 | 1008.4 |
| 20260505034004 | 56 | 3 | 2.6 | 8.7 | 0.00 | 0.00 | 0.00 | 47 | 1008.4 |
| 20260505033504 | 56 | 11 | 2.6 | 9.6 | 0.00 | 0.00 | 0.00 | 47 | 1008.2 |
| 20260505033009 | 56 | 18 | 2.6 | 9.6 | 0.00 | 0.00 | 0.00 | 48 | 1008.3 |
| 20260505032503 | 56 | 24 | 3.5 | 9.6 | 0.00 | 0.00 | 0.00 | 47 | 1007.8 |
| 20260505032003 | 56 | 25 | 3.5 | 9.6 | 0.00 | 0.00 | 0.00 | 46 | 1007.9 |
| 20260505031508 | 56 | 27 | 4.3 | 9.6 | 0.00 | 0.00 | 0.00 | 46 | 1008.1 |
| 20260505031003 | 57 | 17 | 4.3 | 12.2 | 0.00 | 0.00 | 0.00 | 46 | 1008.1 |
| 20260505030503 | 57 | 11 | 4.3 | 12.2 | 0.00 | 0.00 | 0.00 | 46 | 1008.1 |
| 20260505030008 | 57 | 20 | 3.5 | 10.4 | 0.00 | 0.00 | 0.00 | 47 | 1007.8 |
| 20260505025503 | 57 | 13 | 3.5 | 9.6 | 0.00 | 0.00 | 0.00 | 48 | 1007.6 |
| 20260505025004 | 57 | 11 | 3.5 | 15.6 | 0.00 | 0.00 | 0.00 | 47 | 1007.7 |
| 20260505024508 | 57 | 16 | 3.5 | 15.6 | 0.00 | 0.00 | 0.00 | 47 | 1007.5 |
| 20260505024004 | 57 | 13 | 4.3 | 14.8 | 0.00 | 0.00 | 0.00 | 47 | 1007.7 |
| 20260505023504 | 57 | 20 | 5.2 | 12.2 | 0.00 | 0.00 | 0.00 | 46 | 1007.2 |
| 20260505023008 | 57 | 22 | 5.2 | 12.2 | 0.00 | 0.00 | 0.00 | 46 | 1006.9 |
| 20260505022504 | 58 | 23 | 4.3 | 12.2 | 0.00 | 0.00 | 0.00 | 46 | 1006.9 |
| 20260505022003 | 58 | 22 | 4.3 | 11.3 | 0.00 | 0.00 | 0.00 | 46 | 1006.9 |
| 20260505021508 | 58 | 9 | 4.3 | 14.8 | 0.00 | 0.00 | 0.00 | 46 | 1006.9 |
| 20260505021003 | 58 | 17 | 5.2 | 14.8 | 0.00 | 0.00 | 0.00 | 46 | 1006.8 |
| 20260505020503 | 58 | 22 | 5.2 | 16.5 | 0.00 | 0.00 | 0.00 | 47 | 1006.6 |
| 20260505020008 | 58 | 15 | 4.3 | 16.5 | 0.00 | 0.00 | 0.00 | 47 | 1006.8 |
| 20260505015503 | 59 | 18 | 5.2 | 18.2 | 0.00 | 0.00 | 0.00 | 47 | 1006.7 |
| 20260505015004 | 59 | 17 | 6.1 | 18.2 | 0.00 | 0.00 | 0.00 | 47 | 1006.8 |
| 20260505013503 | 60 | 29 | 4.3 | 15.6 | 0.00 | 0.00 | 0.00 | 44 | 1006.1 |
| 20260505013008 | 61 | 22 | 4.3 | 15.6 | 0.00 | 0.00 | 0.00 | 44 | 1006.0 |
| 20260505012504 | 61 | 23 | 5.2 | 13.9 | 0.00 | 0.00 | 0.00 | 43 | 1005.8 |
| 20260505012004 | 61 | 17 | 5.2 | 17.4 | 0.00 | 0.00 | 0.00 | 43 | 1005.9 |
| 20260505011508 | 62 | 13 | 5.2 | 17.4 | 0.00 | 0.00 | 0.00 | 42 | 1005.7 |
| 20260505011003 | 62 | 26 | 4.3 | 14.8 | 0.00 | 0.00 | 0.00 | 42 | 1005.8 |
| 20260505010504 | 62 | 26 | 5.2 | 15.6 | 0.00 | 0.00 | 0.00 | 41 | 1005.7 |
| 20260505010009 | 63 | 16 | 5.2 | 15.6 | 0.00 | 0.00 | 0.00 | 41 | 1005.7 |
| 20260505005503 | 64 | 11 | 6.1 | 15.6 | 0.00 | 0.00 | 0.00 | 40 | 1005.6 |
| 20260505005004 | 64 | 14 | 6.1 | 14.8 | 0.00 | 0.00 | 0.00 | 39 | 1005.4 |
| 20260505004004 | 65 | 13 | 3.5 | 13.0 | 0.00 | 0.00 | 0.00 | 38 | 1005.4 |
| 20260505003503 | 66 | 14 | 3.5 | 13.0 | 0.00 | 0.00 | 0.00 | 38 | 1005.2 |
| 20260505003008 | 66 | 16 | 5.2 | 15.6 | 0.00 | 0.00 | 0.00 | 38 | 1005.2 |
| 20260505002505 | 67 | 16 | 7.0 | 16.5 | 0.00 | 0.00 | 0.00 | 37 | 1005.0 |
| 20260505002004 | 68 | 18 | 6.1 | 16.5 | 0.00 | 0.00 | 0.00 | 37 | 1004.9 |
| 20260505001508 | 68 | 14 | 6.1 | 17.4 | 0.00 | 0.00 | 0.00 | 37 | 1004.7 |
| 20260505001004 | 69 | 9 | 6.1 | 17.4 | 0.00 | 0.00 | 0.00 | 36 | 1004.8 |
| 20260505000503 | 69 | 9 | 5.2 | 12.2 | 0.00 | 0.00 | 0.00 | 36 | 1004.7 |
| 20260505000008 | 69 | 8 | 4.3 | 12.2 | 0.00 | 0.00 | 0.00 | 36 | 1004.5 |
| 20260504235505 | 69 | 7 | 4.3 | 9.6 | 0.00 | 0.00 | 0.00 | 37 | 1004.4 |
| 20260504235003 | 70 | 15 | 4.3 | 10.4 | 0.00 | 0.00 | 0.00 | 37 | 1004.4 |
| 20260504234509 | 70 | 24 | 4.3 | 11.3 | 0.00 | 0.00 | 0.00 | 36 | 1004.5 |
| 20260504234003 | 70 | 23 | 4.3 | 13.9 | 0.00 | 0.00 | 0.00 | 36 | 1004.4 |
| 20260504233505 | 70 | 17 | 4.3 | 13.9 | 0.00 | 0.00 | 0.00 | 35 | 1004.4 |
| 20260504233008 | 70 | 11 | 5.2 | 14.8 | 0.00 | 0.00 | 0.00 | 35 | 1004.4 |
| 20260504232503 | 71 | 15 | 6.1 | 14.8 | 0.00 | 0.00 | 0.00 | 35 | 1004.2 |
| 20260504232004 | 71 | 22 | 4.3 | 12.2 | 0.00 | 0.00 | 0.00 | 34 | 1004.1 |
| 20260504231507 | 72 | 22 | 3.5 | 11.3 | 0.00 | 0.00 | 0.00 | 34 | 1004.0 |
| 20260504231004 | 72 | 11 | 3.5 | 10.4 | 0.00 | 0.00 | 0.00 | 34 | 1004.0 |
| 20260504230503 | 73 | 5 | 3.5 | 10.4 | 0.00 | 0.00 | 0.00 | 34 | 1004.0 |
| 20260504230008 | 73 | 20 | 4.3 | 10.4 | 0.00 | 0.00 | 0.00 | 33 | 1003.8 |
| 20260504225504 | 73 | 14 | 4.3 | 11.3 | 0.00 | 0.00 | 0.00 | 34 | 1003.5 |
| 20260504225004 | 73 | 2 | 4.3 | 13.9 | 0.00 | 0.00 | 0.00 | 34 | 1003.4 |
| 20260504224004 | 74 | 13 | 4.3 | 12.2 | 0.00 | 0.00 | 0.00 | 34 | 1003.3 |
| 20260504223504 | 74 | 11 | 4.3 | 12.2 | 0.00 | 0.00 | 0.00 | 33 | 1003.2 |
| 20260504223008 | 74 | 20 | 4.3 | 13.0 | 0.00 | 0.00 | 0.00 | 33 | 1003.1 |
| 20260504222003 | 75 | 18 | 3.5 | 13.0 | 0.00 | 0.00 | 0.00 | 33 | 1002.9 |
| 20260504221508 | 76 | 10 | 3.5 | 13.0 | 0.00 | 0.00 | 0.00 | 33 | 1002.7 |
| 20260504221003 | 76 | 17 | 4.3 | 13.0 | 0.00 | 0.00 | 0.00 | 34 | 1002.6 |
| 20260504220504 | 76 | 20 | 3.5 | 13.0 | 0.00 | 0.00 | 0.00 | 32 | 1002.6 |
| 20260504220009 | 76 | 14 | 3.5 | 11.3 | 0.00 | 0.00 | 0.00 | 32 | 1002.4 |
| 20260504214508 | 77 | 11 | 3.5 | 12.2 | 0.00 | 0.00 | 0.00 | 32 | 1002.4 |
| 20260504214003 | 77 | 7 | 4.3 | 12.2 | 0.00 | 0.00 | 0.00 | 32 | 1002.4 |
| 20260504213503 | 77 | 1 | 4.3 | 11.3 | 0.00 | 0.00 | 0.00 | 33 | 1002.4 |
| 20260504213008 | 77 | 354 | 3.5 | 11.3 | 0.00 | 0.00 | 0.00 | 32 | 1002.4 |
| 20260504212505 | 78 | 11 | 3.5 | 10.4 | 0.00 | 0.00 | 0.00 | 33 | 1002.2 |
| 20260504212003 | 78 | 13 | 3.5 | 11.3 | 0.00 | 0.00 | 0.00 | 33 | 1002.1 |
| 20260504211508 | 78 | 17 | 3.5 | 11.3 | 0.00 | 0.00 | 0.00 | 33 | 1002.0 |
| 20260504211003 | 78 | 27 | 2.6 | 8.7 | 0.00 | 0.00 | 0.00 | 35 | 1002.0 |
| 20260504210505 | 78 | 19 | 3.5 | 9.6 | 0.00 | 0.00 | 0.00 | 36 | 1002.1 |
| 20260504210008 | 78 | 21 | 3.5 | 9.6 | 0.00 | 0.00 | 0.00 | 34 | 1002.0 |
| 20260504205504 | 79 | 21 | 2.6 | 7.8 | 0.00 | 0.00 | 0.00 | 35 | 1002.1 |
| 20260504205004 | 79 | 20 | 2.6 | 7.8 | 0.00 | 0.00 | 0.00 | 37 | 1002.0 |
| 20260504204508 | 79 | 356 | 4.3 | 11.3 | 0.00 | 0.00 | 0.00 | 40 | 1002.0 |
| 20260504204004 | 78 | 350 | 4.3 | 11.3 | 0.00 | 0.00 | 0.00 | 35 | 1002.1 |
| 20260504203504 | 79 | 5 | 3.5 | 9.6 | 0.00 | 0.00 | 0.00 | 37 | 1002.0 |
| 20260504203008 | 79 | 7 | 2.6 | 9.6 | 0.00 | 0.00 | 0.00 | 37 | 1002.0 |
| 20260504202504 | 79 | 350 | 2.6 | 8.7 | 0.00 | 0.00 | 0.00 | 37 | 1002.0 |
| 20260504201507 | 79 | 20 | 3.5 | 12.2 | 0.00 | 0.00 | 0.00 | 37 | 1002.0 |
| 20260504201004 | 79 | 7 | 3.5 | 12.2 | 0.00 | 0.00 | 0.00 | 36 | 1002.0 |
| 20260504200503 | 80 | 349 | 2.6 | 8.7 | 0.00 | 0.00 | 0.00 | 37 | 1001.9 |
| 20260504200008 | 80 | 344 | 3.5 | 8.7 | 0.00 | 0.00 | 0.00 | 36 | 1001.8 |
| 20260504195503 | 79 | 4 | 3.5 | 13.9 | 0.00 | 0.00 | 0.00 | 38 | 1001.9 |
| 20260504195004 | 80 | 359 | 3.5 | 13.9 | 0.00 | 0.00 | 0.00 | 38 | 1001.9 |
| 20260504194507 | 80 | 318 | 3.5 | 8.7 | 0.00 | 0.00 | 0.00 | 39 | 1001.7 |
| 20260504194004 | 80 | 324 | 3.5 | 8.7 | 0.00 | 0.00 | 0.00 | 37 | 1001.7 |
| 20260504193503 | 80 | 342 | 3.5 | 8.7 | 0.00 | 0.00 | 0.00 | 39 | 1001.7 |
| 20260504193008 | 80 | 335 | 3.5 | 8.7 | 0.00 | 0.00 | 0.00 | 36 | 1001.7 |
| 20260504191003 | 81 | 330 | 2.6 | 12.2 | 0.00 | 0.00 | 0.00 | 36 | 1001.6 |
| 20260504190504 | 82 | 345 | 2.6 | 12.2 | 0.00 | 0.00 | 0.00 | 36 | 1001.6 |
| 20260504190008 | 81 | 3 | 3.5 | 8.7 | 0.00 | 0.00 | 0.00 | 36 | 1001.6 |
| 20260504185003 | 81 | 345 | 2.6 | 10.4 | 0.00 | 0.00 | 0.00 | 35 | 1001.3 |
| 20260504184508 | 81 | 343 | 2.6 | 8.7 | 0.00 | 0.00 | 0.00 | 34 | 1001.3 |
| 20260504183503 | 81 | 322 | 3.5 | 12.2 | 0.00 | 0.00 | 0.00 | 34 | 1001.2 |
| 20260504183008 | 82 | 303 | 2.6 | 12.2 | 0.00 | 0.00 | 0.00 | 34 | 1001.3 |
| 20260504182504 | 82 | 308 | 3.5 | 12.2 | 0.00 | 0.00 | 0.00 | 33 | 1001.2 |
| 20260504181507 | 81 | 320 | 3.5 | 11.3 | 0.00 | 0.00 | 0.00 | 33 | 1001.2 |
| 20260504181004 | 82 | 319 | 2.6 | 9.6 | 0.00 | 0.00 | 0.00 | 33 | 1001.2 |
| 20260504180503 | 82 | 339 | 2.6 | 9.6 | 0.00 | 0.00 | 0.00 | 34 | 1001.2 |
| 20260504180008 | 82 | 346 | 2.6 | 10.4 | 0.00 | 0.00 | 0.00 | 34 | 1001.3 |
| 20260504175504 | 82 | 342 | 1.7 | 10.4 | 0.00 | 0.00 | 0.00 | 34 | 1001.3 |
| 20260504175004 | 81 | 290 | 1.7 | 8.7 | 0.00 | 0.00 | 0.00 | 36 | 1001.4 |
| 20260504174508 | 81 | 292 | 2.6 | 9.6 | 0.00 | 0.00 | 0.00 | 34 | 1001.4 |
| 20260504174003 | 80 | 293 | 2.6 | 9.6 | 0.00 | 0.00 | 0.00 | 35 | 1001.6 |
| 20260504173007 | 80 | 310 | 2.6 | 7.8 | 0.00 | 0.00 | 0.00 | 37 | 1001.6 |
| 20260504172503 | 80 | 314 | 2.6 | 8.7 | 0.00 | 0.00 | 0.00 | 37 | 1001.7 |
| 20260504172003 | 79 | 317 | 2.6 | 8.7 | 0.00 | 0.00 | 0.00 | 35 | 1001.6 |
| 20260504171507 | 79 | 322 | 4.3 | 11.3 | 0.00 | 0.00 | 0.00 | 36 | 1001.5 |
| 20260504171003 | 79 | 324 | 4.3 | 12.2 | 0.00 | 0.00 | 0.00 | 37 | 1001.6 |
| 20260504170504 | 79 | 317 | 2.6 | 12.2 | 0.00 | 0.00 | 0.00 | 36 | 1001.7 |
| 20260504151003 | 68 | 292 | 0.9 | 4.3 | 0.00 | 0.00 | 0.00 | 51 | 1001.8 |
| 20260504150504 | 68 | 276 | 0.9 | 4.3 | 0.00 | 0.00 | 0.00 | 52 | 1001.8 |
| 20260504141003 | 62 | 343 | 0.9 | 2.6 | 0.00 | 0.00 | 0.00 | 60 | 1002.3 |
| 20260504140504 | 62 | 316 | 1.7 | 5.2 | 0.00 | 0.00 | 0.00 | 60 | 1002.2 |
| 20260504130503 | 55 | 309 | 0.9 | 2.6 | 0.00 | 0.00 | 0.00 | 74 | 1002.4 |
| 20260504110503 | 48 | 184 | 0.0 | 0.9 | 0.00 | 0.00 | 0.00 | 84 | 1002.0 |
| 20260504100504 | 47 | 0 | 0.0 | 0.0 | 0.00 | 0.00 | 0.00 | 85 | 1002.1 |
| 20260504082003 | 49 | 0 | 0.0 | 0.0 | 0.00 | 0.00 | 0.00 | 82 | 1003.2 |
| 20260504081507 | 49 | 0 | 0.0 | 0.0 | 0.00 | 0.00 | 0.00 | 82 | 1003.3 |
| 20260504081003 | 49 | 0 | 0.0 | 0.0 | 0.00 | 0.00 | 0.00 | 81 | 1003.4 |
| 20260504080503 | 49 | 0 | 0.0 | 0.0 | 0.00 | 0.00 | 0.00 | 81 | 1003.5 |
| 20260504050503 | 54 | 0 | 0.0 | 0.0 | 0.00 | 0.00 | 0.00 | 73 | 1006.1 |
| 20260504050010 | 54 | 0 | 0.0 | 0.0 | 0.00 | 0.00 | 0.00 | 72 | 1006.1 |
| 20260504045504 | 55 | 0 | 0.0 | 0.0 | 0.00 | 0.00 | 0.00 | 71 | 1006.0 |
| 20260504045003 | 55 | 0 | 0.0 | 0.0 | 0.00 | 0.00 | 0.00 | 71 | 1006.2 |
| 20260504044508 | 55 | 0 | 0.0 | 0.0 | 0.00 | 0.00 | 0.00 | 71 | 1006.1 |
| 20260504044003 | 55 | 0 | 0.0 | 0.0 | 0.00 | 0.00 | 0.00 | 70 | 1006.1 |
| 20260504043504 | 56 | 0 | 0.0 | 0.0 | 0.00 | 0.00 | 0.00 | 69 | 1006.3 |
| 20260504043007 | 56 | 0 | 0.0 | 0.0 | 0.00 | 0.00 | 0.00 | 69 | 1006.3 |
| 20260504042503 | 56 | 0 | 0.0 | 0.0 | 0.00 | 0.00 | 0.00 | 68 | 1006.2 |
| 20260504041003 | 57 | 0 | 0.0 | 0.0 | 0.00 | 0.00 | 0.00 | 67 | 1006.4 |
| 20260504040504 | 57 | 0 | 0.0 | 0.0 | 0.00 | 0.00 | 0.00 | 67 | 1006.4 |
| 20260504040009 | 57 | 0 | 0.0 | 0.0 | 0.00 | 0.00 | 0.00 | 64 | 1006.5 |
| 20260504035503 | 58 | 0 | 0.0 | 0.0 | 0.00 | 0.00 | 0.00 | 66 | 1006.7 |